Temperature
20 17 16 17 18 19 19 19 18 18 16 15 13 13 13 13 13 12 12 12 12 13 13 14 14 15 15 16 16 17 17 17 18 18 19 19 19 19 20 19 19 19 19 18
16 16 17 18 17 18 18 18 17 17 16 14 13 13 13 13 13 12 12 12 12 12 13 13 14 14 14 15 15 16 16 16 17 17 17 18 19 19 19 19 19 19 19 18
16 17 17 17 15 16 17 17 17 17 15 14 13 13 12 13 13 12 12 12 11 11 12 12 13 13 14 14 14 14 15 15 16 16 17 17 18 18 18 19 19 19 19 18
16 17 16 16 15 15 15 16 16 16 15 12 13 12 11 11 11 12 12 11 11 11 12 12 12 12 13 13 13 13 14 14 15 15 15 16 16 17 18 18 18 18 18 18
17 16 15 15 16 15 15 15 15 15 13 11 11 11 11 10 10 11 11 11 11 11 11 11 12 12 12 13 13 13 13 13 14 14 14 15 15 16 16 17 17 17 17 18
16 17 16 15 15 15 14 14 13 11 11 11 11 11 11 10 10 10 11 11 11 11 11 11 12 12 12 13 13 13 13 13 13 14 14 14 15 15 15 16 16 16 16 16
15 15 15 15 14 14 12 12 13 13 11 11 11 11 11 11 11 11 11 11 11 11 11 11 11 12 12 12 12 12 12 13 13 13 13 14 14 14 15 15 15 15 15 15
15 14 15 15 14 13 12 11 12 13 12 11 11 11 11 12 12 11 11 11 11 11 11 11 11 11 11 12 12 12 12 12 13 13 13 13 13 14 14 14 14 15 15 15
14 14 16 15 14 14 13 11 11 10 11 11 11 12 12 12 11 11 11 11 11 11 11 11 11 11 11 12 12 12 12 12 13 13 13 13 13 13 13 14 14 14 14 14
14 14 15 15 14 13 12 11 9 10 11 11 11 11 10 10 11 11 11 11 11 12 12 11 11 11 11 11 12 12 12 12 12 13 13 13 13 13 13 13 13 14 14 14
14 13 14 14 13 12 12 11 9 8 9 10 10 11 11 10 10 10 11 11 12 12 12 12 12 11 11 11 12 12 12 12 12 12 13 13 13 13 13 13 13 13 13 13
12 11 12 14 14 13 12 10 10 9 9 9 10 10 12 10 11 11 11 12 13 13 12 12 12 12 12 11 11 11 11 12 12 12 12 12 13 13 13 13 13 13 13 13
13 12 12 13 13 13 12 11 9 8 8 9 10 11 12 11 12 12 12 13 13 13 13 13 13 12 12 12 11 11 11 11 11 12 12 12 12 12 13 13 13 13 13 13
13 11 12 14 13 13 13 12 11 9 8 9 10 11 11 11 10 12 13 13 13 13 13 13 13 13 12 12 12 11 11 11 11 11 12 12 12 12 12 12 12 13 13 13
13 13 13 13 14 13 13 12 11 11 9 9 11 11 11 11 11 12 13 13 14 14 14 13 13 13 13 12 12 12 11 11 11 11 11 11 11 11 11 12 12 12 12 12
12 13 14 14 14 14 13 13 12 11 11 11 11 11 11 13 13 13 13 14 14 14 14 14 14 13 13 13 12 12 11 11 11 11 11 11 11 11 11 11 11 11 11 11
11 12 12 12 13 13 13 13 12 12 11 11 11 11 12 13 13 14 14 14 14 14 14 14 14 14 13 13 13 12 12 11 11 11 11 11 10 10 10 10 11 11 11 11
11 11 10 11 13 13 13 13 13 13 13 11 12 12 13 14 14 14 14 14 14 14 14 14 14 14 14 13 13 12 12 12 11 11 11 11 10 10 10 10 10 10 10 10
11 11 10 10 12 13 14 13 13 13 13 12 12 13 14 14 14 14 14 14 14 14 14 14 14 14 14 14 13 13 12 12 12 11 11 11 10 10 10 10 10 10 10 10
11 10 10 10 14 14 15 14 15 14 13 14 14 14 14 13 11 12 15 14 14 14 14 14 14 14 14 14 13 13 13 12 12 11 11 11 11 10 10 10 10 10 10 10
13 11 11 11 12 12 13 14 15 12 13 15 15 15 14 14 13 15 15 14 14 14 14 14 14 14 14 14 14 13 13 13 12 12 11 11 11 10 10 10 10 10 10 10
12 11 11 10 12 13 14 13 13 13 16 16 16 16 15 15 15 15 15 15 14 14 14 14 14 14 14 14 14 14 13 13 12 12 11 11 11 10 10 10 10 10 10 10
11 12 10 11 13 15 15 16 17 17 17 17 17 16 16 15 15 15 15 15 14 14 14 14 14 14 14 14 14 14 13 13 12 12 11 11 11 10 10 10 10 10 10 9
12 11 10 10 11 14 16 16 17 17 18 17 17 16 16 16 15 15 15 15 15 14 14 14 14 14 14 14 14 14 13 13 13 12 12 11 11 10 10 10 10 10 9 9
13 10 11 12 12 14 16 17 17 17 17 17 17 16 16 16 16 15 15 15 15 15 15 14 14 14 14 14 14 14 13 13 13 12 12 11 11 10 10 10 10 9 9 9
12 12 13 14 16 15 18 18 17 17 17 17 17 16 16 16 16 15 15 15 15 15 15 15 15 14 14 14 14 14 14 13 13 12 12 11 11 10 10 10 10 9 9 9
Wind_Speed
8 9 7 7 6 2 2 4 3 4 5 8 12 11 9 11 14 15 14 14 14 12 11 11 11 10 10 11 11 11 11 11 9 6 4 4 5 6 6 7 9 10 10 11
8 8 7 6 7 6 4 4 3 3 6 7 9 9 6 9 12 11 11 12 13 15 14 14 12 11 11 12 11 11 11 11 9 8 6 4 4 4 5 5 7 9 10 9
9 4 6 6 8 7 4 3 1 1 5 5 4 4 7 6 7 12 13 12 12 14 15 14 13 12 11 11 12 11 11 11 10 10 7 6 3 2 2 4 6 6 8 9
8 5 5 6 6 6 2 2 3 2 4 3 3 0 6 8 9 15 16 15 14 15 14 13 13 12 12 11 11 10 10 10 10 10 8 8 4 4 4 3 4 5 6 7
5 4 6 7 5 4 4 4 1 2 5 5 7 3 5 7 10 16 16 15 15 14 14 13 12 11 11 10 10 9 9 9 9 9 9 8 6 4 3 2 2 3 4 5
5 3 4 4 4 3 3 3 5 6 5 5 5 3 5 6 10 15 15 15 15 14 14 13 12 11 10 10 9 9 9 9 9 9 9 9 8 6 4 2 1 1 1 2
7 7 7 5 8 8 9 6 4 6 6 2 3 3 2 6 9 10 13 14 14 13 13 13 13 13 12 12 11 9 9 9 10 9 9 9 8 7 6 4 3 3 2 1
4 6 7 7 4 4 5 5 5 3 2 1 3 3 3 4 8 9 10 10 12 13 13 14 13 12 12 12 11 10 10 9 9 9 9 8 8 6 5 6 5 4 3 2
5 0 4 4 5 3 4 4 2 6 3 3 3 3 3 6 11 11 12 12 13 13 14 14 13 12 11 11 11 11 10 10 9 9 9 9 8 7 6 6 5 4 3 3
6 4 4 5 6 8 5 4 5 5 3 2 3 3 6 11 13 13 13 13 13 13 13 13 12 12 11 10 10 10 10 10 9 9 8 8 8 8 7 6 6 5 4 4
4 5 4 5 6 6 6 5 6 5 4 4 1 3 3 7 9 10 11 11 11 11 11 11 10 10 10 10 10 10 11 11 11 10 9 9 9 9 8 7 7 5 4 4
4 5 3 2 2 3 5 4 3 4 3 3 2 3 5 6 7 7 9 10 10 9 9 8 9 9 9 10 10 10 10 10 10 10 9 10 9 9 10 9 8 7 6 5
5 6 3 5 5 5 6 4 4 6 5 3 2 4 4 6 7 7 7 9 9 9 9 8 8 9 9 9 9 9 9 9 9 9 9 10 10 10 10 10 9 9 8 8
5 5 4 3 3 0 3 3 3 4 4 3 2 4 6 8 8 9 9 9 8 8 8 8 8 8 8 7 7 8 8 8 9 9 9 10 10 9 9 9 9 10 9 9
5 5 4 3 3 3 2 2 3 3 5 5 5 4 7 7 6 7 7 8 8 8 8 8 7 6 7 7 7 7 7 8 8 8 9 8 8 8 9 9 9 9 10 10
4 5 3 2 2 2 0 2 3 3 4 3 2 5 7 6 4 5 7 7 7 8 8 8 8 7 6 6 6 6 6 7 7 7 8 7 8 8 8 8 8 9 10 9
3 5 4 0 1 4 5 7 7 5 5 7 6 6 4 3 5 5 6 6 7 7 7 7 7 6 6 5 4 5 5 5 6 7 7 7 7 7 7 7 8 8 8 9
6 5 4 3 2 5 7 4 7 6 6 8 7 6 6 6 5 5 5 5 7 7 7 7 7 7 5 4 4 3 3 5 6 6 7 7 7 7 7 7 8 7 7 7
5 7 5 4 2 7 6 5 8 7 6 9 9 7 5 3 3 5 4 3 4 5 5 5 5 5 5 5 4 3 4 4 5 6 6 6 6 7 7 7 7 6 6 7
6 6 6 4 2 5 7 5 7 5 5 8 10 9 6 6 1 5 4 4 5 5 4 5 6 5 5 5 3 2 3 4 4 4 4 5 6 6 7 6 6 5 5 6
2 3 4 5 5 8 6 7 10 5 8 6 11 9 9 9 7 5 4 3 3 4 5 6 6 6 6 6 3 3 3 3 2 2 4 5 6 6 6 5 5 5 6 6
8 6 6 5 4 8 6 10 10 11 3 7 10 9 10 9 6 5 3 2 4 5 5 6 6 6 6 6 4 4 4 3 2 4 5 6 6 5 5 6 6 6 6 7
8 9 7 9 8 5 9 9 7 7 7 8 9 9 9 8 6 4 2 0 3 4 4 4 5 5 6 6 5 5 5 2 3 5 5 5 6 6 5 6 6 6 6 6
5 4 5 5 9 7 9 6 5 8 8 9 9 9 9 8 7 5 3 1 1 3 3 4 4 5 6 7 6 5 4 1 4 5 4 4 4 4 5 5 5 5 6 6
7 8 5 6 7 4 7 11 9 8 7 8 8 9 10 9 7 6 4 3 1 1 2 2 3 3 5 6 6 6 4 2 3 4 4 3 3 3 3 3 3 3 2 3
7 9 9 8 8 8 8 10 11 10 10 11 10 8 7 8 8 7 5 3 2 2 1 2 3 3 4 5 6 6 4 1 3 3 3 2 2 1 1 1 2 2 1 4
Wind_Direction
30 50 32 355 357 18 93 109 100 68 86 82 89 79 48 34 34 27 19 11 4 358 351 352 354 353 351 352 351 346 347 346 345 338 320 279 248 231 219 212 206 200 198 198
51 34 353 2 18 44 70 87 60 64 92 103 105 81 48 39 33 21 11 4 356 350 350 349 349 350 352 348 346 343 344 342 343 334 315 287 277 251 226 214 200 193 188 188
86 2 356 45 37 35 50 98 343 290 80 86 121 65 18 3 14 11 9 2 356 351 346 341 343 343 344 345 343 341 338 339 340 336 326 312 292 274 223 207 204 195 188 184
81 15 29 50 39 28 326 328 296 245 120 55 14 357 359 335 345 0 357 353 349 345 342 340 341 340 339 337 335 334 334 337 341 342 340 331 309 284 266 247 212 191 188 177
74 19 33 30 354 355 292 324 356 106 118 70 25 66 331 341 351 346 345 344 342 340 338 336 337 334 332 332 333 332 335 339 343 346 345 340 329 306 300 285 214 192 184 178
52 18 45 350 334 3 338 65 61 54 72 55 343 41 350 348 333 331 337 339 338 337 335 334 335 336 335 336 336 339 341 342 345 348 350 351 348 348 357 6 66 111 124 135
27 11 1 12 9 9 34 67 46 27 34 21 333 62 334 311 327 329 332 335 338 340 343 341 341 344 343 339 341 345 348 345 347 352 355 355 356 6 19 19 44 70 76 86
72 4 351 12 29 341 29 81 119 141 149 312 12 27 296 308 333 337 336 337 346 348 346 347 347 346 343 345 350 351 351 348 350 355 355 359 5 13 19 24 34 44 49 56
124 100 326 20 29 54 53 57 116 120 109 75 16 349 338 342 348 349 348 350 352 349 347 349 350 352 352 356 357 357 357 356 357 359 359 5 8 14 19 23 33 39 40 53
124 116 343 340 32 37 82 98 74 80 104 75 5 1 336 332 336 338 341 342 339 340 345 347 351 353 356 1 359 3 5 3 5 8 11 12 11 13 17 25 28 33 38 49
99 107 5 28 33 354 22 48 74 79 92 121 57 324 301 303 313 321 324 327 328 333 338 340 343 346 352 1 7 11 12 12 13 13 14 18 16 17 23 28 25 25 35 46
103 105 66 346 346 94 93 77 109 116 94 106 129 277 288 303 308 314 318 323 326 329 334 338 340 347 358 3 4 7 10 12 12 11 16 20 19 22 26 26 23 27 34 38
121 100 71 359 356 17 54 56 85 106 106 105 132 281 308 333 330 329 328 331 333 335 341 345 347 352 357 358 359 3 6 7 8 12 18 22 22 23 25 26 27 33 35 37
106 83 123 145 218 217 52 59 105 106 117 144 213 269 307 322 323 325 330 332 332 335 339 345 346 347 349 351 356 0 1 2 8 14 22 24 21 22 24 27 32 35 38 40
90 90 84 87 98 106 97 97 116 124 159 164 211 244 267 278 286 298 310 325 336 341 343 344 341 341 344 350 353 357 1 2 7 17 22 16 15 21 26 29 30 33 37 40
72 108 91 53 68 81 53 199 149 149 169 187 218 263 254 261 276 296 310 324 331 332 336 338 339 341 342 345 345 352 358 358 8 19 17 13 19 24 25 27 30 33 32 32
84 115 110 205 19 11 280 219 193 199 197 179 204 235 246 258 276 284 295 308 311 315 324 331 330 326 323 327 332 341 343 357 16 19 17 17 21 26 22 28 33 30 27 30
120 103 110 118 92 265 250 209 174 185 213 201 217 233 224 231 260 274 268 279 300 314 325 326 323 322 318 318 331 339 357 12 22 23 19 18 23 26 25 33 32 26 24 28
123 127 117 125 204 278 279 187 169 177 242 207 205 224 228 221 349 312 277 275 284 299 307 306 309 309 314 320 329 358 5 12 25 25 23 22 27 32 32 33 27 22 30 32
72 95 113 133 194 250 252 194 149 112 267 214 187 200 187 135 118 272 286 309 317 329 331 334 335 340 346 336 339 12 359 6 14 20 35 40 42 44 38 34 32 27 34 29
125 87 130 164 227 262 241 149 122 150 243 201 178 182 170 181 205 233 295 313 333 344 349 355 359 360 346 339 0 12 359 350 355 60 66 56 50 52 44 40 34 32 31 29
174 166 184 161 205 258 188 147 179 210 205 168 173 174 179 203 225 244 264 311 359 359 356 1 3 358 352 1 18 11 352 334 68 92 81 66 52 50 49 48 40 33 29 30
192 188 184 190 213 233 186 194 199 168 170 177 175 179 179 189 209 213 206 295 353 357 357 358 1 359 0 4 13 4 336 348 105 101 93 79 66 54 48 52 46 37 32 32
239 166 170 242 258 235 220 232 198 182 182 177 172 168 169 180 193 193 189 222 322 340 349 352 1 5 354 349 358 350 337 51 115 115 113 97 80 61 47 47 47 47 36 30
217 168 193 249 267 259 230 210 199 188 172 158 161 170 175 176 184 186 193 213 245 302 328 346 351 343 337 341 348 350 358 76 112 122 128 117 101 86 54 42 38 42 26 15
192 177 180 220 215 192 224 201 180 170 174 171 165 170 178 178 181 180 190 204 211 244 295 329 338 335 334 343 345 347 353 60 135 136 149 156 154 139 88 10 349 337 335 11
Height
1534 1542 1552 1550 1547 1546 1546 1549 1553 1553 1554 1559 1565 1569 1569 1566 1563 1561 1559 1556 1553 1551 1548 1544 1540 1537 1533 1530 1527 1524 1521 1518 1516 1515 1514 1513 1514 1515 1517 1519 1521 1523 1525 1527
1545 1554 1552 1549 1548 1548 1549 1554 1556 1556 1556 1562 1568 1570 1569 1568 1567 1565 1562 1558 1555 1550 1546 1542 1539 1536 1531 1528 1525 1522 1519 1516 1513 1511 1510 1509 1509 1509 1510 1513 1515 1517 1519 1522
1554 1557 1552 1553 1554 1554 1554 1557 1557 1557 1560 1564 1567 1572 1572 1569 1567 1565 1562 1559 1555 1552 1547 1542 1538 1535 1531 1527 1524 1521 1517 1514 1511 1509 1506 1505 1504 1504 1505 1506 1508 1511 1513 1516
1555 1556 1555 1556 1557 1557 1560 1555 1555 1555 1564 1574 1571 1580 1578 1573 1568 1565 1562 1558 1555 1551 1546 1542 1538 1534 1530 1527 1523 1520 1517 1513 1509 1506 1504 1502 1500 1500 1500 1501 1503 1505 1507 1510
1559 1558 1558 1559 1558 1557 1558 1555 1556 1557 1566 1577 1580 1582 1584 1576 1572 1567 1563 1559 1555 1551 1546 1542 1537 1533 1530 1526 1523 1519 1516 1512 1508 1505 1502 1500 1498 1497 1497 1497 1498 1500 1502 1505
1559 1558 1558 1559 1557 1556 1556 1557 1560 1566 1573 1587 1587 1586 1587 1582 1578 1571 1565 1561 1556 1551 1546 1541 1537 1532 1529 1526 1522 1519 1515 1512 1508 1505 1502 1499 1497 1495 1495 1495 1496 1497 1499 1500
1565 1563 1560 1559 1560 1559 1560 1567 1576 1579 1590 1591 1584 1586 1588 1581 1577 1573 1568 1562 1557 1552 1546 1541 1536 1531 1528 1525 1522 1518 1515 1512 1509 1505 1502 1500 1497 1495 1495 1494 1495 1496 1497 1498
1570 1576 1566 1563 1565 1566 1567 1572 1583 1586 1591 1593 1586 1588 1586 1579 1576 1573 1568 1563 1558 1553 1548 1542 1537 1533 1529 1526 1522 1519 1516 1513 1510 1507 1504 1501 1499 1497 1496 1495 1495 1496 1496 1497
1572 1575 1566 1564 1565 1565 1569 1576 1576 1585 1588 1593 1591 1586 1581 1578 1575 1572 1568 1563 1560 1555 1550 1544 1539 1535 1530 1527 1523 1520 1517 1514 1511 1509 1506 1504 1501 1500 1498 1497 1496 1496 1497 1497
1565 1573 1570 1567 1566 1568 1572 1575 1582 1587 1593 1597 1593 1590 1591 1583 1578 1573 1569 1565 1561 1557 1552 1547 1542 1538 1533 1529 1525 1522 1519 1516 1513 1511 1508 1506 1504 1502 1500 1499 1498 1498 1498 1498
1564 1574 1575 1572 1575 1577 1576 1579 1586 1593 1595 1600 1600 1597 1586 1584 1579 1576 1571 1567 1563 1559 1555 1550 1546 1542 1537 1533 1529 1525 1522 1519 1516 1513 1511 1509 1507 1505 1503 1502 1501 1500 1500 1499
1566 1576 1581 1576 1573 1573 1576 1581 1585 1592 1599 1598 1598 1599 1582 1581 1578 1575 1572 1568 1565 1561 1558 1554 1549 1545 1541 1537 1533 1529 1526 1522 1519 1517 1514 1512 1510 1508 1506 1504 1503 1503 1502 1502
1565 1575 1586 1584 1583 1578 1578 1581 1585 1590 1596 1599 1598 1597 1581 1579 1577 1575 1572 1569 1566 1563 1560 1556 1552 1548 1545 1541 1537 1534 1530 1527 1524 1521 1518 1515 1513 1510 1508 1507 1505 1504 1504 1503
1563 1576 1583 1586 1584 1580 1580 1582 1584 1588 1597 1596 1594 1590 1583 1580 1578 1575 1573 1570 1568 1565 1562 1558 1555 1552 1548 1545 1541 1538 1535 1531 1528 1525 1522 1519 1516 1514 1512 1510 1508 1506 1505 1504
1563 1576 1577 1578 1576 1578 1579 1581 1583 1586 1590 1593 1589 1587 1583 1580 1578 1576 1574 1571 1569 1566 1563 1560 1557 1554 1551 1548 1545 1541 1538 1535 1532 1529 1526 1523 1520 1518 1515 1513 1511 1509 1507 1506
1566 1575 1577 1579 1577 1578 1580 1580 1581 1583 1585 1586 1585 1585 1578 1577 1577 1575 1574 1572 1570 1567 1564 1562 1559 1556 1553 1550 1547 1544 1542 1539 1536 1533 1529 1526 1524 1521 1519 1516 1514 1512 1510 1509
1570 1575 1582 1586 1581 1581 1584 1577 1578 1579 1579 1581 1584 1580 1576 1576 1575 1574 1573 1572 1570 1568 1566 1563 1560 1557 1554 1552 1549 1547 1544 1542 1539 1536 1533 1530 1527 1525 1522 1520 1518 1516 1514 1512
1570 1577 1586 1589 1586 1589 1577 1567 1569 1573 1573 1574 1574 1574 1574 1574 1574 1573 1573 1572 1570 1568 1566 1563 1560 1558 1555 1553 1551 1548 1546 1544 1541 1539 1535 1532 1530 1527 1525 1523 1521 1519 1518 1516
1566 1575 1585 1591 1590 1583 1570 1565 1567 1571 1571 1567 1569 1570 1571 1573 1573 1572 1571 1571 1570 1568 1566 1564 1561 1558 1556 1554 1551 1550 1548 1546 1543 1541 1538 1535 1533 1530 1528 1526 1524 1522 1521 1518
1569 1572 1582 1588 1583 1581 1566 1559 1560 1567 1570 1561 1563 1566 1569 1571 1575 1573 1570 1570 1569 1568 1566 1563 1561 1559 1557 1554 1552 1550 1548 1547 1545 1543 1540 1538 1535 1533 1531 1529 1527 1525 1523 1521
1571 1576 1581 1585 1583 1573 1557 1556 1561 1575 1567 1555 1558 1562 1566 1568 1570 1570 1569 1569 1568 1567 1565 1563 1561 1559 1557 1555 1553 1551 1549 1547 1546 1544 1542 1540 1538 1535 1533 1531 1530 1528 1525 1523
1568 1575 1579 1583 1581 1572 1552 1555 1558 1556 1551 1552 1556 1559 1563 1565 1567 1568 1568 1568 1567 1566 1565 1563 1561 1560 1558 1556 1554 1552 1550 1548 1547 1546 1544 1542 1540 1538 1536 1534 1532 1530 1528 1526
1559 1558 1561 1563 1557 1545 1544 1544 1545 1547 1549 1551 1554 1558 1561 1563 1565 1566 1567 1567 1567 1566 1565 1563 1562 1560 1558 1556 1554 1552 1551 1549 1548 1547 1546 1544 1542 1540 1539 1537 1535 1532 1530 1528
1550 1548 1551 1552 1543 1540 1540 1541 1543 1545 1547 1549 1553 1556 1559 1561 1563 1565 1566 1566 1566 1565 1564 1563 1562 1561 1559 1557 1555 1553 1552 1550 1549 1548 1547 1546 1544 1543 1541 1539 1537 1535 1533 1530
1540 1544 1546 1544 1537 1535 1534 1536 1539 1543 1545 1548 1552 1555 1557 1560 1562 1563 1565 1565 1565 1565 1564 1563 1562 1560 1559 1557 1555 1554 1553 1551 1550 1549 1548 1547 1546 1545 1543 1541 1539 1537 1535 1533
1532 1533 1537 1535 1527 1528 1527 1529 1535 1539 1542 1546 1549 1553 1556 1558 1560 1562 1563 1564 1564 1564 1563 1562 1561 1560 1559 1557 1556 1554 1553 1552 1551 1550 1549 1549 1548 1546 1545 1543 1542 1540 1537 1535